| time (UTC) | temp C | wind direction | speed KPH | gust KPH | rain 1hr cm | rain 24hr cm | rain mn cm | humidity % | barometer mb |
| 20260503203040 | 11 | 230 | 3.2 | 11.3 | 0.10 | 0.13 | 0.13 | 92 | 1007.7 |
| 20260503201532 | 11 | 261 | 3.2 | 6.4 | 0.03 | 0.05 | 0.05 | 92 | 1007.8 |
| 20260503200031 | 11 | 171 | 0.0 | 0.0 | 0.00 | 0.03 | 0.03 | 91 | 1007.8 |
| 20260503194533 | 11 | 171 | 0.0 | 1.6 | 0.03 | 0.03 | 0.03 | 91 | 1007.6 |
| 20260503193030 | 12 | 171 | 1.6 | 4.8 | 0.03 | 0.03 | 0.03 | 91 | 1007.3 |
| 20260503191536 | 12 | 179 | 0.0 | 0.0 | 0.03 | 0.03 | 0.03 | 90 | 1007.3 |
| 20260503190029 | 12 | 178 | 0.0 | 1.6 | 0.03 | 0.03 | 0.03 | 90 | 1007.5 |
| 20260503184528 | 12 | 179 | 0.0 | 3.2 | 0.00 | 0.00 | 0.00 | 89 | 1007.3 |
| 20260503183025 | 12 | 192 | 4.8 | 9.7 | 0.00 | 0.00 | 0.00 | 89 | 1007.8 |
| 20260503181524 | 12 | 196 | 6.4 | 14.5 | 0.00 | 0.00 | 0.00 | 88 | 1008.0 |
| 20260503180032 | 13 | 202 | 8.0 | 12.9 | 0.00 | 0.00 | 0.00 | 87 | 1008.2 |
| 20260503174522 | 13 | 199 | 6.4 | 9.7 | 0.00 | 0.00 | 0.00 | 87 | 1008.2 |
| 20260503173021 | 13 | 192 | 3.2 | 9.7 | 0.00 | 0.00 | 0.00 | 86 | 1008.1 |
| 20260503171524 | 13 | 200 | 6.4 | 12.9 | 0.00 | 0.00 | 0.00 | 85 | 1008.2 |
| 20260503081536 | 12 | 244 | 9.7 | 17.7 | 0.00 | 0.00 | 0.00 | 87 | 1010.7 |
| 20260503071534 | 12 | 280 | 12.9 | 20.9 | 0.00 | 0.00 | 0.00 | 89 | 1010.4 |
| 20260503054536 | 11 | 260 | 11.3 | 20.9 | 0.00 | 0.00 | 0.00 | 92 | 1010.4 |
| 20260503053029 | 11 | 257 | 9.7 | 20.9 | 0.00 | 0.00 | 0.00 | 92 | 1010.3 |
| 20260503051528 | 11 | 232 | 9.7 | 17.7 | 0.00 | 0.00 | 0.00 | 92 | 1010.1 |
| 20260503050023 | 10 | 255 | 9.7 | 17.7 | 0.00 | 0.00 | 0.00 | 92 | 1010.3 |
| 20260503044522 | 10 | 234 | 9.7 | 17.7 | 0.00 | 0.00 | 0.00 | 93 | 1010.3 |
| 20260503043034 | 10 | 218 | 6.4 | 12.9 | 0.00 | 0.00 | 0.00 | 93 | 1010.4 |
| 20260503041520 | 10 | 216 | 6.4 | 11.3 | 0.00 | 0.00 | 0.00 | 93 | 1010.3 |
| 20260503040016 | 10 | 229 | 4.8 | 11.3 | 0.00 | 0.00 | 0.00 | 93 | 1010.5 |
| 20260503034517 | 10 | 221 | 8.0 | 16.1 | 0.00 | 0.00 | 0.00 | 93 | 1010.5 |
| 20260503033020 | 10 | 241 | 9.7 | 16.1 | 0.00 | 0.00 | 0.00 | 93 | 1010.4 |
| 20260503031514 | 10 | 253 | 8.0 | 17.7 | 0.00 | 0.00 | 0.00 | 93 | 1010.1 |
| 20260503030012 | 10 | 236 | 6.4 | 14.5 | 0.00 | 0.00 | 0.00 | 93 | 1010.2 |
| 20260503024522 | 10 | 228 | 6.4 | 17.7 | 0.00 | 0.00 | 0.00 | 93 | 1010.4 |
| 20260503023009 | 10 | 251 | 6.4 | 16.1 | 0.00 | 0.00 | 0.00 | 92 | 1010.5 |
| 20260503021527 | 10 | 227 | 9.7 | 17.7 | 0.00 | 0.00 | 0.00 | 92 | 1010.6 |
| 20260503020008 | 10 | 258 | 6.4 | 14.5 | 0.00 | 0.00 | 0.00 | 92 | 1010.7 |
| 20260503014507 | 10 | 245 | 8.0 | 14.5 | 0.00 | 0.00 | 0.00 | 92 | 1010.6 |
| 20260503013008 | 10 | 267 | 9.7 | 17.7 | 0.00 | 0.00 | 0.00 | 92 | 1010.6 |
| 20260503011506 | 10 | 253 | 11.3 | 25.7 | 0.00 | 0.00 | 0.00 | 92 | 1010.7 |
| 20260503010002 | 10 | 262 | 11.3 | 19.3 | 0.00 | 0.00 | 0.00 | 92 | 1010.7 |
| 20260503004609 | 10 | 249 | 11.3 | 19.3 | 0.00 | 0.00 | 0.00 | 91 | 1010.4 |
| 20260503003111 | 11 | 267 | 14.5 | 20.9 | 0.00 | 0.00 | 0.00 | 91 | 1010.5 |
| 20260503001612 | 11 | 253 | 6.4 | 17.7 | 0.00 | 0.00 | 0.00 | 91 | 1010.5 |
| 20260503000051 | 11 | 217 | 8.0 | 12.9 | 0.00 | 0.00 | 0.00 | 91 | 1010.6 |
| 20260502234548 | 11 | 215 | 8.0 | 11.3 | 0.00 | 0.00 | 0.00 | 90 | 1010.5 |
| 20260502233047 | 12 | 213 | 4.8 | 11.3 | 0.00 | 0.00 | 0.00 | 90 | 1010.6 |
| 20260502231545 | 12 | 215 | 8.0 | 14.5 | 0.00 | 0.00 | 0.00 | 89 | 1010.7 |
| 20260502230045 | 12 | 209 | 9.7 | 16.1 | 0.00 | 0.00 | 0.00 | 88 | 1010.8 |
| 20260502224541 | 12 | 223 | 11.3 | 14.5 | 0.00 | 0.00 | 0.00 | 87 | 1010.8 |
| 20260502223037 | 13 | 217 | 9.7 | 14.5 | 0.00 | 0.00 | 0.00 | 86 | 1010.9 |
| 20260502221534 | 13 | 212 | 9.7 | 12.9 | 0.00 | 0.00 | 0.00 | 84 | 1010.8 |
| 20260502220035 | 13 | 202 | 6.4 | 11.3 | 0.00 | 0.00 | 0.00 | 82 | 1010.7 |
| 20260502214529 | 14 | 209 | 8.0 | 11.3 | 0.00 | 0.00 | 0.00 | 80 | 1010.9 |
| 20260502213031 | 14 | 210 | 8.0 | 11.3 | 0.00 | 0.00 | 0.00 | 79 | 1011.0 |
| 20260502211527 | 15 | 209 | 6.4 | 9.7 | 0.00 | 0.00 | 0.00 | 79 | 1011.2 |
| 20260502210027 | 15 | 216 | 4.8 | 9.7 | 0.00 | 0.00 | 0.00 | 79 | 1011.2 |
| 20260502204534 | 15 | 214 | 3.2 | 8.0 | 0.00 | 0.00 | 0.00 | 79 | 1011.2 |